Location: Goudex
(43.3760°N, 0.9543°E)
Time: 20:20:40
(UTC+00:00)

COSMOS 2487 - Pass Details

Date: 20 November 2019
Orbit: 444 x 448 km, 74.7° (Epoch: 06 December)

Event Time Altitude Azimuth Distance (km) Brightness Sun altitude
Exits shadow 06:03:31 13° 282° (WNW) 1,371 4.2 -9.5°
Maximum altitude 06:04:28 15° 301° (WNW) 1,311 4.1 -9.4°
Drops below altitude 10° 06:06:30 10° 337° (NNW) 1,574 4.8 -9.0°
Sets 06:09:19 0° 2° (N) 2,451 6.0 -8.5°
